[[{"header":{"parameterUnit":"m.s-1","parameterCategory":2,"la1":30.2991,"la2":30.254,"lo1":-89.0895,"lo2":-89.0444,"dy":0.0017,"dx":0.0017,"nx":28,"ny":28,"refTime":"2023-03-30T21:00:00:Z","depth":"0","parameterNumber":2,"parameterNumberName":"U-component_of_CURRENTS"},"data":[0,0,0,0,0,0,0,0,0,0,0,0,0,0,0,0,0,0,0,0,0,0,0,0,0,0,0,0,0,0,0,0,0,0,0,0,0,0,0,0,0,0,0,0,0,0,0,0,0,0,0,0,0,0,0,0,0,0,-0.2467,-0.2467,0,-0.2513,-0.2513,-0.2514,-0.2513,-0.2513,-0.2513,-0.2512,-0.2493,-0.2493,-0.2492,0,0,0,0,0,0,0,0,0,0,0,0,0,-0.2379,-0.238,-0.2467,-0.2467,-0.2468,-0.2513,-0.2514,-0.2514,-0.2513,-0.2513,-0.2512,-0.2512,-0.2493,-0.2493,-0.2492,0,0,0,0,0,0,0,0,0,0,0,0,0,-0.2417,-0.2381,-0.2466,-0.2476,-0.2477,-0.2513,-0.2514,-0.2514,-0.2513,-0.2513,-0.2512,-0.2512,-0.2493,-0.2493,-0.2492,-0.2501,0,0,-0.2491,-0.2491,0,0,0,0,0,0,0,0,-0.2415,-0.242,-0.2474,-0.2475,-0.2477,-0.251,-0.2476,-0.2507,-0.2514,-0.2496,-0.2512,-0.2512,-0.2495,-0.2494,-0.2501,-0.25,-0.2499,-0.2491,-0.2491,-0.2491,-0.2491,0,0,0,0,0,0,0,-0.2413,-0.2418,-0.2482,-0.2475,-0.2477,-0.2478,-0.2483,-0.2482,-0.2494,-0.2498,-0.2499,-0.2509,-0.2495,-0.2501,-0.25,-0.2499,-0.2491,-0.2491,-0.2491,-0.2491,-0.2492,-0.2492,0,0,0,0,0,0,-0.2414,-0.2416,-0.2481,-0.2484,-0.2448,-0.2481,-0.2485,-0.2497,-0.2496,-0.2496,-0.2509,-0.2509,-0.2502,-0.25,-0.2499,-0.2492,-0.2491,-0.2491,-0.2491,-0.2491,-0.2492,-0.2492,0,0,0,0,0,0,-0.2412,-0.2419,-0.2479,-0.2453,-0.2461,-0.2483,-0.2496,-0.2498,-0.2507,-0.2506,-0.2504,-0.2515,-0.2501,-0.25,-0.2512,-0.2491,-0.2491,-0.249,-0.2491,-0.2492,-0.2492,-0.2487,0,0,0,0,0,0,-0.2409,-0.2418,-0.2427,-0.2453,-0.2463,-0.25,-0.2497,-0.25,-0.2515,-0.2515,-0.251,-0.2508,-0.2501,-0.2513,-0.2512,-0.2491,-0.249,-0.2491,-0.2491,-0.2492,-0.2487,-0.2488,-0.2488,0,0,0,0,0,-0.2406,-0.2422,-0.2427,-0.2435,-0.2474,-0.2501,-0.2505,-0.2517,-0.2516,-0.2521,-0.2528,-0.2508,-0.2513,-0.2514,-0.2512,-0.249,-0.2491,-0.2491,-0.2492,-0.2487,-0.2487,-0.2488,0,0,0,0,0,0,-0.2402,-0.2424,-0.243,-0.2456,-0.2476,-0.2502,-0.251,-0.252,-0.2531,-0.2528,-0.2524,-0.2523,-0.2522,-0.2516,-0.2516,-0.2493,-0.2493,-0.2494,-0.249,-0.2491,-0.2491,-0.25,-0.249,0,0,0,0,0,-0.2403,-0.241,-0.244,-0.246,-0.2468,-0.2489,-0.2501,-0.2512,-0.2527,-0.2531,-0.2529,-0.2525,-0.2523,-0.2517,-0.2516,-0.2511,-0.2521,-0.2493,-0.2493,-0.2493,-0.2501,-0.2497,-0.2498,-0.2493,-0.2493,-0.2493,0,0,-0.2407,-0.2421,-0.2426,-0.2457,-0.247,-0.2489,-0.2494,-0.2514,-0.2527,-0.2527,-0.2535,-0.2531,-0.2526,-0.252,-0.2516,-0.251,-0.2505,-0.2494,-0.2494,-0.2502,-0.2498,-0.2498,-0.2498,-0.2494,-0.2494,-0.2494,0,0,-0.2414,-0.243,-0.2434,-0.2452,-0.2476,-0.2492,-0.2498,-0.2522,-0.2526,-0.2544,-0.2539,-0.2531,-0.2532,-0.2518,-0.2512,-0.2515,-0.2512,-0.2506,-0.2505,-0.2501,-0.2501,-0.2502,-0.2536,-0.2539,-0.2498,-0.2498,-0.2498,0,-0.2419,-0.2436,-0.2442,-0.2456,-0.2478,-0.2492,-0.2514,-0.2521,-0.2546,-0.2554,-0.2546,-0.2546,-0.2529,-0.2522,-0.2516,-0.2512,-0.2529,-0.2502,-0.2501,-0.2501,-0.2501,-0.2536,-0.254,-0.2498,-0.2498,-0.2498,-0.2498,0,-0.2426,-0.2447,-0.2454,-0.2474,-0.2494,-0.2517,-0.2535,-0.2547,-0.2554,-0.2563,-0.2563,-0.2546,-0.2549,-0.2525,-0.252,-0.2506,-0.2526,-0.2506,-0.2499,-0.2501,-0.2539,-0.2543,-0.2498,-0.2498,-0.2498,-0.2498,0,0,-0.2423,-0.2453,-0.2456,-0.2475,-0.251,-0.2529,-0.2549,-0.2577,-0.2605,-0.2587,-0.2617,-0.2572,-0.2565,-0.2559,-0.2537,-0.2515,-0.2524,-0.2509,-0.2509,-0.2543,-0.255,-0.2651,-0.2665,-0.2503,-0.2503,-0.2503,-0.2583,0,-0.2432,-0.2459,-0.2476,-0.2513,-0.2535,-0.2563,-0.259,-0.2613,-0.2632,-0.2662,-0.2622,-0.2634,-0.2577,-0.258,-0.2548,-0.2541,-0.2531,-0.2506,-0.2544,-0.2546,-0.2633,-0.2671,-0.2449,-0.2508,-0.2587,-0.2588,-0.2588,0,-0.243,-0.2457,-0.2485,-0.2547,-0.256,-0.2584,-0.2644,-0.2672,-0.2708,-0.2724,-0.2718,-0.271,-0.2681,-0.2633,-0.2603,-0.2594,-0.2575,-0.2555,-0.2557,-0.2655,-0.2654,-0.2514,-0.2513,-0.2458,-0.2594,-0.2594,-0.2593,0,-0.2412,-0.2465,-0.2488,-0.2506,-0.2571,-0.2594,-0.2633,-0.2684,-0.2726,-0.2763,-0.2806,-0.2772,-0.278,-0.2726,-0.2699,-0.2649,-0.2696,-0.2622,-0.2695,-0.2703,-0.2526,-0.2519,-0.247,-0.2604,-0.2603,-0.2603,-0.2603,0,-0.2412,-0.2434,-0.248,-0.2496,-0.255,-0.2593,-0.2663,-0.2699,-0.2773,-0.2843,-0.2831,-0.2886,-0.2801,-0.2824,-0.2757,-0.2781,-0.2746,-0.2722,-0.2733,-0.2525,-0.2517,-0.2474,-0.2483,-0.2606,-0.2605,-0.2605,-0.2604,0,-0.2378,-0.2404,-0.2445,-0.2514,-0.2537,-0.2574,-0.2683,-0.2752,-0.2809,-0.2907,-0.2921,-0.2978,-0.3015,-0.2975,-0.2936,-0.2891,-0.2825,-0.2889,-0.2688,-0.2676,-0.2684,-0.2703,-0.274,-0.2677,-0.296,-0.2963,-0.2966,0,-0.2363,-0.237,-0.2444,-0.2489,-0.252,-0.2592,-0.2667,-0.2749,-0.283,-0.2972,-0.3027,-0.3107,-0.3148,-0.3179,-0.3089,-0.3039,-0.2956,-0.2862,-0.2716,-0.2694,-0.2719,-0.2711,-0.265,-0.2468,-0.2466,-0.2465,-0.2464,0,-0.234,-0.2354,-0.2392,-0.2471,-0.2546,-0.2628,-0.273,-0.2785,-0.2907,-0.298,-0.3093,-0.3131,-0.3204,-0.3068,-0.307,-0.2994,-0.2766,-0.2841,-0.2804,-0.2353,-0.2343,-0.2282,-0.2457,-0.2451,-0.2452,-0.2453,-0.2454,-0.2454,-0.232,-0.2335,-0.2375,-0.2439,-0.2539,-0.2609,-0.2601,-0.2725,-0.2787,-0.2796,-0.2979,-0.2944,-0.2921,-0.2871,-0.2867,-0.2719,-0.2766,-0.2522,-0.2556,-0.2561,-0.2469,-0.2698,-0.2732,-0.2734,-0.2737,-0.2739,-0.2741,0,-0.2267,-0.2278,-0.2349,-0.2396,-0.2455,-0.2519,-0.2599,-0.2531,-0.2517,-0.2598,-0.2593,-0.2577,-0.247,-0.2507,-0.2436,-0.2365,-0.2246,-0.2312,-0.2121,-0.2078,-0.2216,-0.216,-0.2085,-0.2085,-0.2085,-0.2085,-0.2085,-0.2085,-0.2239,-0.2241,-0.2255,-0.2269,-0.2306,-0.2238,-0.2218,-0.2135,-0.2112,-0.2036,-0.2038,-0.2099,-0.2201,-0.2317,-0.2212,-0.212,-0.2041,-0.1992,-0.2112,-0.2068,-0.2085,-0.21,-0.2045,-0.1947,-0.1947,-0.1764,-0.1763,-0.1762]},{"header":{"parameterUnit":"m.s-1","parameterCategory":2,"la1":30.2991,"la2":30.254,"lo1":-89.0895,"lo2":-89.0444,"dy":0.0017,"dx":0.0017,"nx":28,"ny":28,"refTime":"2023-03-30T21:00:00:Z","depth":"0","parameterNumber":3,"parameterNumberName":"V-component_of_CURRENTS"},"data":[0,0,0,0,0,0,0,0,0,0,0,0,0,0,0,0,0,0,0,0,0,0,0,0,0,0,0,0,0,0,0,0,0,0,0,0,0,0,0,0,0,0,0,0,0,0,0,0,0,0,0,0,0,0,0,0,0,0,-0.0967,-0.0965,0,-0.0714,-0.0711,-0.0708,-0.0604,-0.0604,-0.0604,-0.0605,-0.0479,-0.0475,-0.0472,0,0,0,0,0,0,0,0,0,0,0,0,0,-0.1217,-0.1214,-0.0968,-0.0964,-0.0961,-0.0714,-0.0711,-0.0708,-0.0603,-0.0604,-0.0605,-0.0605,-0.048,-0.0476,-0.0471,0,0,0,0,0,0,0,0,0,0,0,0,0,-0.1052,-0.1213,-0.0968,-0.0879,-0.0868,-0.0715,-0.0711,-0.0707,-0.0603,-0.0604,-0.0605,-0.0605,-0.0482,-0.0476,-0.0471,-0.0422,0,0,-0.0453,-0.0451,0,0,0,0,0,0,0,0,-0.1062,-0.1043,-0.0895,-0.0885,-0.0872,-0.069,-0.0752,-0.0617,-0.0603,-0.0705,-0.0605,-0.0606,-0.0561,-0.0548,-0.0499,-0.0416,-0.0411,-0.0453,-0.045,-0.0447,-0.0445,0,0,0,0,0,0,0,-0.1074,-0.1053,-0.0868,-0.0892,-0.0878,-0.0802,-0.0781,-0.0725,-0.0635,-0.0696,-0.0688,-0.0658,-0.0555,-0.0504,-0.0495,-0.0409,-0.0453,-0.0448,-0.0445,-0.0442,-0.0286,-0.0285,0,0,0,0,0,0,-0.1109,-0.1064,-0.0876,-0.086,-0.097,-0.0797,-0.0773,-0.0749,-0.0632,-0.0614,-0.0657,-0.0654,-0.0513,-0.0502,-0.0491,-0.0423,-0.0447,-0.0442,-0.0439,-0.0287,-0.0286,-0.0285,0,0,0,0,0,0,-0.1116,-0.1095,-0.0886,-0.0956,-0.0924,-0.0793,-0.0766,-0.0743,-0.0692,-0.0601,-0.0586,-0.0629,-0.0514,-0.0499,-0.043,-0.0419,-0.0439,-0.0434,-0.0288,-0.0286,-0.0285,-0.0292,0,0,0,0,0,0,-0.1124,-0.1099,-0.1101,-0.0958,-0.0921,-0.0793,-0.0764,-0.0738,-0.0672,-0.0665,-0.0572,-0.056,-0.0513,-0.0439,-0.0425,-0.0411,-0.043,-0.0289,-0.0287,-0.0286,-0.0293,-0.0291,-0.029,0,0,0,0,0,-0.1134,-0.112,-0.1102,-0.1079,-0.0925,-0.0791,-0.0765,-0.0675,-0.067,-0.0635,-0.0576,-0.0563,-0.0421,-0.0433,-0.0416,-0.0401,-0.0289,-0.0287,-0.0286,-0.0294,-0.0292,-0.029,0,0,0,0,0,0,-0.1225,-0.1103,-0.1082,-0.1033,-0.0926,-0.0774,-0.0729,-0.068,-0.06,-0.0602,-0.0539,-0.0521,-0.0459,-0.043,-0.0445,-0.0354,-0.0359,-0.0354,-0.0371,-0.0368,-0.0367,-0.0379,-0.0425,0,0,0,0,0,-0.125,-0.1212,-0.108,-0.1043,-0.099,-0.0868,-0.0809,-0.0744,-0.065,-0.0615,-0.055,-0.0493,-0.0435,-0.0404,-0.0345,-0.029,-0.0261,-0.0275,-0.0274,-0.0273,-0.0272,-0.0218,-0.0212,-0.0279,-0.0279,-0.0279,0,0,-0.128,-0.1205,-0.1187,-0.1061,-0.0971,-0.0875,-0.0833,-0.0734,-0.067,-0.0617,-0.0527,-0.0481,-0.0419,-0.035,-0.0322,-0.0326,-0.0236,-0.0271,-0.027,-0.027,-0.0215,-0.0209,-0.0203,-0.0278,-0.0278,-0.0279,0,0,-0.1277,-0.1246,-0.1193,-0.1102,-0.0967,-0.0889,-0.0868,-0.072,-0.0673,-0.0578,-0.0534,-0.0481,-0.0382,-0.0332,-0.0298,-0.0258,-0.0229,-0.0249,-0.0248,-0.0195,-0.019,-0.0184,-0.013,-0.012,-0.025,-0.025,-0.025,0,-0.1316,-0.123,-0.1156,-0.106,-0.0991,-0.0901,-0.0816,-0.0743,-0.06,-0.0568,-0.0558,-0.0416,-0.0372,-0.0293,-0.0279,-0.0255,-0.022,-0.026,-0.0194,-0.0188,-0.0182,-0.0128,-0.0117,-0.025,-0.025,-0.025,-0.025,0,-0.1248,-0.1179,-0.1133,-0.1,-0.0923,-0.0835,-0.0725,-0.0668,-0.0622,-0.055,-0.0469,-0.0395,-0.0319,-0.03,-0.0273,-0.0212,-0.0198,-0.0198,-0.0201,-0.0176,-0.012,-0.0108,-0.0251,-0.0251,-0.0251,-0.025,0,0,-0.1311,-0.1129,-0.1107,-0.1046,-0.0887,-0.0816,-0.0731,-0.0623,-0.0589,-0.0485,-0.0424,-0.0334,-0.0312,-0.0274,-0.0237,-0.0194,-0.0125,-0.0183,-0.018,-0.0134,-0.0,0.0075,0.0095,-0.0112,-0.0111,-0.0109,0.0025,0,-0.1271,-0.1125,-0.1035,-0.0913,-0.083,-0.0743,-0.0679,-0.059,-0.0525,-0.0451,-0.0386,-0.0318,-0.0297,-0.0272,-0.0219,-0.0142,-0.0094,-0.0161,-0.0028,-0.0023,0.0036,0.0111,0.0106,0.0231,0.0037,0.0039,0.004,0,-0.1207,-0.1126,-0.1004,-0.0883,-0.0843,-0.0774,-0.0687,-0.0615,-0.0511,-0.0467,-0.0387,-0.0327,-0.0232,-0.0236,-0.0084,-0.0125,-0.0067,-0.0016,-0.0009,0.007,0.0075,0.0174,0.026,0.0422,0.0059,0.0058,0.0056,0,-0.1267,-0.1098,-0.1023,-0.0967,-0.082,-0.0784,-0.0728,-0.0629,-0.0596,-0.0481,-0.0449,-0.0316,-0.0259,-0.0152,-0.003,-0.0056,0.0133,0.011,0.0234,0.024,0.0268,0.0273,0.0522,0.0203,0.0202,0.0202,0.0201,0,-0.1237,-0.1168,-0.1054,-0.1005,-0.0964,-0.0843,-0.0804,-0.0735,-0.0649,-0.0618,-0.0477,-0.0423,-0.024,-0.0106,-0.0008,0.0178,0.0159,0.0261,0.0291,0.0267,0.0271,0.0437,0.0488,0.0207,0.0206,0.0205,0.0204,0,-0.1262,-0.1178,-0.1102,-0.0996,-0.0977,-0.0952,-0.0878,-0.0864,-0.0761,-0.0713,-0.0681,-0.0489,-0.0296,-0.01,0.0095,0.0208,0.0467,0.0422,0.0392,0.0418,0.0689,0.0738,0.099,0.1073,0.0596,0.0599,0.0602,0,-0.1241,-0.1205,-0.114,-0.115,-0.11,-0.1061,-0.1058,-0.0948,-0.0931,-0.0768,-0.0758,-0.0533,-0.0395,-0.0022,0.0246,0.0501,0.0577,0.0636,0.0588,0.0744,0.0819,0.0836,0.0887,0.062,0.0622,0.0624,0.0625,0,-0.1234,-0.123,-0.1199,-0.1242,-0.1243,-0.1228,-0.1202,-0.12,-0.1077,-0.1007,-0.0885,-0.075,-0.0341,0.0006,0.0401,0.0527,0.076,0.0684,0.0851,0.0884,0.0911,0.099,0.0492,0.0642,0.0641,0.064,0.0639,0.0638,-0.1257,-0.1277,-0.1292,-0.1332,-0.1361,-0.1389,-0.1379,-0.1343,-0.1297,-0.1156,-0.1014,-0.0762,-0.0214,0.0364,0.0555,0.0984,0.092,0.1052,0.1105,0.1114,0.1189,0.0748,0.0929,0.0929,0.0929,0.0928,0.0928,0,-0.1273,-0.1329,-0.139,-0.1436,-0.1506,-0.1482,-0.1476,-0.1446,-0.1397,-0.1211,-0.1057,-0.0472,0.0049,0.0563,0.1196,0.1398,0.1399,0.1474,0.1483,0.1519,0.1138,0.1135,0.1363,0.1363,0.1363,0.1363,0.1363,0.1362,-0.1286,-0.1367,-0.1421,-0.1557,-0.16,-0.1629,-0.1618,-0.1548,-0.1402,-0.108,-0.0733,-0.0474,0.0267,0.1249,0.1791,0.1808,0.1956,0.1907,0.2029,0.1748,0.1711,0.1676,0.169,0.203,0.2031,0.2356,0.2359,0.2362]}],[{"header":{"parameterUnit":"m.s-1","parameterCategory":2,"la1":30.2991,"la2":30.254,"lo1":-89.0895,"lo2":-89.0444,"dy":0.0017,"dx":0.0017,"nx":28,"ny":28,"refTime":"2023-03-30T21:00:00:Z","depth":"2","parameterNumber":2,"parameterNumberName":"U-component_of_CURRENTS"},"data":[0,0,0,0,0,0,0,0,0,0,0,0,0,0,0,0,0,0,0,0,0,0,0,0,0,0,0,0,0,0,0,0,0,0,0,0,0,0,0,0,0,0,0,0,0,0,0,0,0,0,0,0,0,0,0,0,0,0,-0.2188,-0.219,0,-0.2228,-0.2228,-0.2227,-0.2223,-0.2224,-0.2224,-0.2224,-0.2148,-0.2146,-0.2144,0,0,0,0,0,0,0,0,0,0,0,0,0,-0.1762,-0.1771,-0.2188,-0.219,-0.2191,-0.2228,-0.2228,-0.2227,-0.2223,-0.2224,-0.2224,-0.2224,-0.2149,-0.2147,-0.2144,0,0,0,0,0,0,0,0,0,0,0,0,0,-0.1882,-0.1774,-0.2188,-0.22,-0.2202,-0.2228,-0.2228,-0.2227,-0.2223,-0.2224,-0.2224,-0.2224,-0.215,-0.2147,-0.2144,-0.2119,0,0,-0.2134,-0.2132,0,0,0,0,0,0,0,0,-0.1875,-0.1897,-0.2197,-0.2199,-0.2201,-0.2228,-0.205,-0.2188,-0.2223,-0.2206,-0.2224,-0.2224,-0.217,-0.2165,-0.2161,-0.2115,-0.2112,-0.2133,-0.2131,-0.213,-0.2129,0,0,0,0,0,0,0,-0.1868,-0.1893,-0.2195,-0.2198,-0.2201,-0.2084,-0.2104,-0.2074,-0.2177,-0.2208,-0.221,-0.2227,-0.2169,-0.2165,-0.2159,-0.2111,-0.2133,-0.2131,-0.2129,-0.2127,-0.2121,-0.2123,0,0,0,0,0,0,-0.19,-0.1888,-0.2194,-0.2197,-0.2045,-0.2094,-0.2115,-0.2212,-0.218,-0.2179,-0.2227,-0.2227,-0.217,-0.2163,-0.2157,-0.2162,-0.213,-0.2127,-0.2125,-0.2119,-0.2121,-0.2123,0,0,0,0,0,0,-0.1892,-0.193,-0.2193,-0.2043,-0.207,-0.2105,-0.2211,-0.2213,-0.2225,-0.2198,-0.2193,-0.2239,-0.217,-0.2161,-0.2157,-0.2157,-0.2126,-0.2123,-0.2117,-0.212,-0.2122,-0.2148,0,0,0,0,0,0,-0.1881,-0.1929,-0.2004,-0.205,-0.2081,-0.2227,-0.2212,-0.2214,-0.2239,-0.2239,-0.2206,-0.2199,-0.2169,-0.2162,-0.2154,-0.2152,-0.212,-0.2115,-0.2118,-0.2121,-0.2145,-0.2151,-0.2156,0,0,0,0,0,-0.1867,-0.1981,-0.201,-0.2045,-0.2189,-0.2229,-0.2233,-0.2246,-0.2239,-0.2253,-0.2237,-0.2201,-0.2178,-0.2161,-0.2151,-0.2148,-0.2113,-0.2117,-0.2121,-0.2142,-0.215,-0.2156,0,0,0,0,0,0,-0.1836,-0.1994,-0.2025,-0.2185,-0.221,-0.2232,-0.2252,-0.2256,-0.2253,-0.2248,-0.2214,-0.2207,-0.2205,-0.2185,-0.2167,-0.2163,-0.2142,-0.2145,-0.2162,-0.2169,-0.2174,-0.2174,-0.2117,0,0,0,0,0,-0.1869,-0.2006,-0.2081,-0.2204,-0.2217,-0.223,-0.2247,-0.2254,-0.2262,-0.2261,-0.2246,-0.2228,-0.2211,-0.2198,-0.2185,-0.2172,-0.217,-0.2171,-0.2177,-0.2181,-0.2179,-0.2178,-0.2182,-0.2136,-0.2136,-0.2136,0,0,-0.1897,-0.1995,-0.2077,-0.2204,-0.2218,-0.2233,-0.224,-0.2272,-0.228,-0.225,-0.2257,-0.2246,-0.2218,-0.2212,-0.2209,-0.2192,-0.2203,-0.2187,-0.219,-0.2185,-0.2182,-0.2186,-0.219,-0.2139,-0.2138,-0.2138,0,0,-0.195,-0.2093,-0.2175,-0.22,-0.2243,-0.2253,-0.2267,-0.2293,-0.2301,-0.2311,-0.2292,-0.229,-0.227,-0.2248,-0.2232,-0.2263,-0.2239,-0.2266,-0.2278,-0.2277,-0.228,-0.2282,-0.2317,-0.2322,-0.2261,-0.2261,-0.2261,0,-0.1956,-0.21,-0.2188,-0.2219,-0.2246,-0.2261,-0.228,-0.2286,-0.2309,-0.2322,-0.2321,-0.2311,-0.2283,-0.2265,-0.2277,-0.227,-0.2283,-0.2245,-0.2281,-0.2283,-0.2285,-0.232,-0.2325,-0.2263,-0.2263,-0.2262,-0.2262,0,-0.2032,-0.2123,-0.2157,-0.2231,-0.2257,-0.2289,-0.2304,-0.2326,-0.234,-0.2347,-0.2363,-0.2339,-0.2336,-0.2326,-0.2302,-0.2304,-0.2316,-0.2291,-0.2255,-0.2291,-0.2327,-0.2332,-0.2265,-0.2265,-0.2264,-0.2264,0,0,-0.211,-0.2199,-0.2207,-0.2224,-0.2272,-0.2297,-0.2317,-0.2349,-0.238,-0.2379,-0.2418,-0.2375,-0.238,-0.2364,-0.234,-0.2327,-0.2354,-0.2316,-0.2315,-0.2336,-0.2385,-0.2443,-0.2454,-0.2332,-0.2333,-0.2333,-0.2416,0,-0.2128,-0.2186,-0.2238,-0.2271,-0.2292,-0.2323,-0.2354,-0.2379,-0.241,-0.2452,-0.2423,-0.2442,-0.2387,-0.2398,-0.2375,-0.2365,-0.2364,-0.2336,-0.2359,-0.2361,-0.2394,-0.2459,-0.2159,-0.2211,-0.242,-0.2421,-0.2422,0,-0.2169,-0.2214,-0.2245,-0.2309,-0.2323,-0.2341,-0.2414,-0.2442,-0.2488,-0.2518,-0.2521,-0.2519,-0.25,-0.2459,-0.2435,-0.2424,-0.2409,-0.2393,-0.2395,-0.2437,-0.2427,-0.2205,-0.2212,-0.243,-0.2429,-0.2428,-0.2428,0,-0.2155,-0.2221,-0.2251,-0.2268,-0.2331,-0.2359,-0.2399,-0.2458,-0.2513,-0.2558,-0.2613,-0.2585,-0.2603,-0.2554,-0.2533,-0.2484,-0.2539,-0.2464,-0.2503,-0.2508,-0.2252,-0.2235,-0.2453,-0.2453,-0.2453,-0.2453,-0.2453,0,-0.2164,-0.2185,-0.2246,-0.2257,-0.2322,-0.2362,-0.2442,-0.2482,-0.257,-0.265,-0.264,-0.2704,-0.2628,-0.2655,-0.2591,-0.2599,-0.2587,-0.2528,-0.2534,-0.2261,-0.2245,-0.242,-0.2414,-0.2456,-0.2455,-0.2455,-0.2454,0,-0.2119,-0.2158,-0.2197,-0.2274,-0.2305,-0.2345,-0.2469,-0.2548,-0.2614,-0.2724,-0.2743,-0.2806,-0.2839,-0.2803,-0.2769,-0.2705,-0.2682,-0.2688,-0.2409,-0.2381,-0.263,-0.2626,-0.2708,-0.2711,-0.2713,-0.2715,-0.2716,0,-0.2093,-0.2104,-0.2197,-0.2249,-0.2282,-0.2364,-0.2453,-0.255,-0.264,-0.2792,-0.2852,-0.2934,-0.2917,-0.2929,-0.284,-0.2767,-0.2812,-0.2522,-0.236,-0.266,-0.2657,-0.2648,-0.2641,-0.2029,-0.2024,-0.2021,-0.2018,0,-0.2042,-0.2074,-0.2123,-0.2214,-0.2303,-0.2411,-0.2527,-0.2578,-0.2714,-0.2771,-0.2859,-0.2839,-0.2889,-0.2678,-0.2661,-0.2573,-0.25,-0.246,-0.2814,-0.2049,-0.2036,-0.2029,-0.2039,-0.1988,-0.1991,-0.1993,-0.1995,-0.1996,-0.2005,-0.2038,-0.2097,-0.2162,-0.2285,-0.2373,-0.2358,-0.2477,-0.2513,-0.2506,-0.2696,-0.2575,-0.257,-0.2354,-0.2285,-0.2258,-0.2401,-0.2233,-0.2235,-0.2241,-0.2187,-0.2182,-0.2152,-0.2156,-0.2159,-0.2162,-0.2165,0,-0.1947,-0.1977,-0.2046,-0.2094,-0.2134,-0.2242,-0.2348,-0.227,-0.218,-0.228,-0.2245,-0.2031,-0.1874,-0.1934,-0.1803,-0.1805,-0.1672,-0.1763,-0.1535,-0.1566,-0.1594,-0.1498,-0.1285,-0.1283,-0.1282,-0.128,0,0,-0.1926,-0.1916,-0.1923,-0.1876,-0.1923,-0.1882,-0.187,-0.1793,-0.179,-0.1664,-0.1618,-0.1716,-0.1807,-0.1526,-0.1477,-0.1364,-0.144,-0.1297,-0.1988,-0.1743,-0.1768,-0.1846,-0.1735,0,0,0,0,0]},{"header":{"parameterUnit":"m.s-1","parameterCategory":2,"la1":30.2991,"la2":30.254,"lo1":-89.0895,"lo2":-89.0444,"dy":0.0017,"dx":0.0017,"nx":28,"ny":28,"refTime":"2023-03-30T21:00:00:Z","depth":"2","parameterNumber":3,"parameterNumberName":"V-component_of_CURRENTS"},"data":[0,0,0,0,0,0,0,0,0,0,0,0,0,0,0,0,0,0,0,0,0,0,0,0,0,0,0,0,0,0,0,0,0,0,0,0,0,0,0,0,0,0,0,0,0,0,0,0,0,0,0,0,0,0,0,0,0,0,-0.0637,-0.0636,0,-0.0486,-0.0484,-0.0482,-0.0422,-0.0423,-0.0424,-0.0425,-0.0328,-0.0324,-0.0321,0,0,0,0,0,0,0,0,0,0,0,0,0,-0.0359,-0.0367,-0.0637,-0.0636,-0.0635,-0.0486,-0.0484,-0.0481,-0.0422,-0.0423,-0.0425,-0.0426,-0.0329,-0.0325,-0.032,0,0,0,0,0,0,0,0,0,0,0,0,0,-0.0366,-0.037,-0.0637,-0.0592,-0.0587,-0.0487,-0.0484,-0.048,-0.0422,-0.0424,-0.0425,-0.0426,-0.033,-0.0325,-0.032,-0.0256,0,0,-0.0303,-0.0301,0,0,0,0,0,0,0,0,-0.0366,-0.0376,-0.06,-0.0595,-0.059,-0.0481,-0.035,-0.041,-0.0422,-0.0478,-0.0425,-0.0427,-0.0387,-0.0377,-0.0335,-0.0251,-0.0247,-0.0303,-0.03,-0.0297,-0.0296,0,0,0,0,0,0,0,-0.0367,-0.0379,-0.057,-0.0599,-0.0592,-0.0403,-0.041,-0.0358,-0.0421,-0.0473,-0.047,-0.0463,-0.0384,-0.034,-0.0332,-0.0245,-0.0303,-0.0298,-0.0295,-0.0293,-0.0165,-0.0164,0,0,0,0,0,0,-0.0426,-0.0383,-0.0575,-0.0567,-0.0487,-0.041,-0.0417,-0.0508,-0.042,-0.041,-0.0462,-0.0461,-0.0348,-0.0339,-0.0329,-0.0293,-0.0297,-0.0292,-0.0289,-0.0165,-0.0165,-0.0164,0,0,0,0,0,0,-0.0422,-0.0449,-0.0581,-0.0468,-0.0473,-0.0418,-0.0517,-0.0505,-0.0479,-0.0413,-0.0403,-0.0453,-0.0349,-0.0336,-0.0285,-0.0288,-0.029,-0.0285,-0.0165,-0.0165,-0.0164,-0.0194,0,0,0,0,0,0,-0.0417,-0.0451,-0.0539,-0.0478,-0.0483,-0.0546,-0.0516,-0.0501,-0.0475,-0.0472,-0.0401,-0.0393,-0.0349,-0.0293,-0.028,-0.0281,-0.0281,-0.0165,-0.0165,-0.0165,-0.0193,-0.0195,-0.0196,0,0,0,0,0,-0.0409,-0.0527,-0.0547,-0.0568,-0.0611,-0.0547,-0.0531,-0.0485,-0.0474,-0.0465,-0.0408,-0.0396,-0.0283,-0.0288,-0.0272,-0.0272,-0.0165,-0.0165,-0.0165,-0.0192,-0.0194,-0.0196,0,0,0,0,0,0,-0.0437,-0.0531,-0.0551,-0.0694,-0.0636,-0.0541,-0.0529,-0.0494,-0.0436,-0.0434,-0.0375,-0.0361,-0.032,-0.029,-0.0298,-0.0236,-0.0229,-0.0225,-0.0256,-0.0257,-0.0258,-0.0267,-0.0276,0,0,0,0,0,-0.0495,-0.0635,-0.0611,-0.0721,-0.069,-0.0609,-0.0581,-0.0542,-0.0479,-0.0455,-0.0403,-0.035,-0.0299,-0.0277,-0.0227,-0.0182,-0.0146,-0.0179,-0.018,-0.0181,-0.0178,-0.0125,-0.0121,-0.0163,-0.0163,-0.0163,0,0,-0.0543,-0.0606,-0.0689,-0.0737,-0.068,-0.0625,-0.0594,-0.0551,-0.0513,-0.0453,-0.0393,-0.0349,-0.0288,-0.0238,-0.022,-0.0218,-0.0149,-0.0181,-0.0182,-0.0178,-0.0124,-0.012,-0.0116,-0.0163,-0.0163,-0.0163,0,0,-0.0614,-0.0741,-0.0817,-0.0771,-0.0717,-0.0661,-0.0657,-0.0562,-0.0532,-0.0465,-0.0417,-0.0375,-0.0292,-0.0247,-0.0215,-0.0195,-0.0157,-0.0191,-0.0201,-0.0149,-0.0145,-0.0141,-0.0085,-0.0076,-0.0193,-0.0194,-0.0194,0,-0.065,-0.0764,-0.0805,-0.0784,-0.0746,-0.0681,-0.0636,-0.0585,-0.0493,-0.0466,-0.0461,-0.0332,-0.0294,-0.0224,-0.0221,-0.0198,-0.0159,-0.02,-0.0151,-0.0146,-0.0142,-0.0085,-0.0075,-0.0195,-0.0195,-0.0195,-0.0194,0,-0.0716,-0.0771,-0.0777,-0.0779,-0.0735,-0.0695,-0.0613,-0.0577,-0.0538,-0.0482,-0.0417,-0.0348,-0.0278,-0.0266,-0.0233,-0.0184,-0.0162,-0.0158,-0.0148,-0.0139,-0.008,-0.0069,-0.0197,-0.0196,-0.0196,-0.0196,0,0,-0.0882,-0.0844,-0.0844,-0.0809,-0.0728,-0.0691,-0.0633,-0.0559,-0.053,-0.0457,-0.0405,-0.0329,-0.03,-0.0262,-0.0222,-0.0182,-0.012,-0.0161,-0.0158,-0.0107,0.0005,0.009,0.0111,-0.0105,-0.0103,-0.0102,0.0035,0,-0.0896,-0.0877,-0.0857,-0.0794,-0.0748,-0.0673,-0.0629,-0.0562,-0.0506,-0.0445,-0.0379,-0.0318,-0.0296,-0.0268,-0.022,-0.0135,-0.0092,-0.0157,-0.0009,-0.0004,0.0069,0.0127,0.0057,0.018,0.0047,0.0049,0.005,0,-0.0944,-0.0932,-0.088,-0.08,-0.0773,-0.073,-0.0657,-0.0608,-0.0513,-0.0472,-0.0396,-0.0333,-0.0243,-0.0243,-0.0092,-0.0132,-0.007,-0.0016,-0.0009,0.009,0.0103,0.0149,0.0206,0.007,0.0068,0.0067,0.0065,0,-0.1015,-0.0944,-0.0918,-0.0883,-0.0782,-0.0755,-0.0711,-0.0623,-0.0596,-0.0488,-0.0453,-0.0328,-0.0265,-0.0163,-0.0033,-0.0061,0.0132,0.0108,0.0242,0.0248,0.0229,0.0232,0.0196,0.0196,0.0196,0.0195,0.0195,0,-0.1044,-0.1012,-0.0951,-0.0928,-0.091,-0.0815,-0.0788,-0.0727,-0.0646,-0.0615,-0.0481,-0.042,-0.0246,-0.0109,-0.0012,0.0182,0.0157,0.0266,0.03,0.0219,0.0219,0.0148,0.014,0.0201,0.0199,0.0198,0.0198,0,-0.1083,-0.1043,-0.1011,-0.0946,-0.0934,-0.0922,-0.0861,-0.085,-0.0751,-0.07,-0.0668,-0.0475,-0.0274,-0.0085,0.0111,0.0218,0.0379,0.0436,0.0344,0.0367,0.0449,0.0438,0.0609,0.0613,0.0617,0.062,0.0623,0,-0.1082,-0.1078,-0.106,-0.108,-0.1047,-0.1025,-0.1029,-0.0929,-0.0911,-0.0741,-0.0726,-0.0494,-0.0345,0.003,0.0266,0.051,0.0483,0.0599,0.0535,0.048,0.0496,0.0479,0.0464,0.0489,0.0491,0.0492,0.0493,0,-0.1091,-0.1107,-0.1106,-0.117,-0.1184,-0.1186,-0.1166,-0.1157,-0.1037,-0.0958,-0.0808,-0.0663,-0.0277,0.0027,0.0396,0.0509,0.0567,0.0632,0.061,0.0407,0.0382,0.0393,0.0379,0.0502,0.0501,0.0501,0.05,0.05,-0.1113,-0.1155,-0.1205,-0.1249,-0.1296,-0.1328,-0.1316,-0.1275,-0.1215,-0.1049,-0.0899,-0.0638,-0.0316,0.021,0.0448,0.0685,0.0668,0.0706,0.0696,0.0686,0.0659,0.0644,0.0808,0.0808,0.0809,0.081,0.081,0,-0.1135,-0.1207,-0.1282,-0.1339,-0.1401,-0.14,-0.14,-0.1354,-0.1272,-0.1088,-0.0908,-0.0551,-0.0182,0.016,0.0532,0.0754,0.0676,0.079,0.064,0.063,0.0621,0.0584,0.0717,0.0717,0.0718,0.0718,0,0,-0.1156,-0.1239,-0.129,-0.1398,-0.1453,-0.1489,-0.1478,-0.1401,-0.1264,-0.1065,-0.0848,-0.0564,-0.0159,0.0099,0.0372,0.0565,0.0528,0.0564,0.0612,0.0391,0.0379,0.0547,0.0479,0,0,0,0,0]}],[{"header":{"parameterUnit":"m.s-1","parameterCategory":2,"la1":30.2991,"la2":30.254,"lo1":-89.0895,"lo2":-89.0444,"dy":0.0017,"dx":0.0017,"nx":28,"ny":28,"refTime":"2023-03-30T21:00:00:Z","depth":"4","parameterNumber":2,"parameterNumberName":"U-component_of_CURRENTS"},"data":[0,0,0,0,0,0,0,0,0,0,0,0,0,0,0,0,0,0,0,0,0,0,0,0,0,0,0,0,0,0,0,0,0,0,0,0,0,0,0,0,0,0,0,0,0,0,0,0,0,0,0,0,0,0,0,0,0,0,-0.0837,-0.0838,0,-0.0894,-0.0895,-0.0896,-0.0953,-0.0953,-0.0953,-0.0954,-0.1132,-0.1137,-0.1141,0,0,0,0,0,0,0,0,0,0,0,0,0,-0.0805,-0.0806,-0.0837,-0.0838,-0.0838,-0.0894,-0.0895,-0.0896,-0.0952,-0.0953,-0.0953,-0.0954,-0.1131,-0.1136,-0.1141,0,0,0,0,0,0,0,0,0,0,0,0,0,-0.084,-0.0806,-0.0837,-0.087,-0.0873,-0.0894,-0.0895,-0.0896,-0.0952,-0.0953,-0.0954,-0.0954,-0.1129,-0.1135,-0.1142,-0.1171,0,0,-0.1162,-0.1165,0,0,0,0,0,0,0,0,-0.0838,-0.0841,-0.0865,-0.0868,-0.0871,-0.0913,-0.0949,-0.0993,-0.0952,-0.0926,-0.0954,-0.0954,-0.1067,-0.1079,-0.1092,-0.1179,-0.1187,-0.1163,-0.1167,-0.1169,-0.1171,0,0,0,0,0,0,0,-0.0835,-0.0839,-0.0864,-0.0865,-0.0869,-0.0891,-0.0897,-0.0957,-0.0998,-0.0929,-0.0932,-0.0932,-0.1071,-0.1086,-0.1097,-0.1189,-0.1162,-0.1168,-0.1172,-0.1175,-0.1474,-0.1478,0,0,0,0,0,0,-0.0818,-0.0837,-0.0862,-0.0865,-0.0851,-0.0891,-0.0897,-0.0902,-0.0995,-0.1007,-0.0931,-0.0934,-0.1074,-0.1089,-0.1104,-0.134,-0.1169,-0.1176,-0.1179,-0.147,-0.1475,-0.1479,0,0,0,0,0,0,-0.0818,-0.082,-0.0859,-0.0849,-0.0855,-0.089,-0.0896,-0.0903,-0.0925,-0.0995,-0.1011,-0.0946,-0.1075,-0.1095,-0.117,-0.134,-0.1179,-0.1185,-0.1465,-0.1472,-0.1477,-0.1687,0,0,0,0,0,0,-0.0816,-0.082,-0.0834,-0.0848,-0.0855,-0.0888,-0.0895,-0.0904,-0.0922,-0.0927,-0.1013,-0.1029,-0.1077,-0.116,-0.1176,-0.1346,-0.119,-0.146,-0.1468,-0.1475,-0.1675,-0.1699,-0.172,0,0,0,0,0,-0.0815,-0.0834,-0.0835,-0.0839,-0.0868,-0.0889,-0.0896,-0.0925,-0.0922,-0.0944,-0.0995,-0.1027,-0.1222,-0.1166,-0.1185,-0.1362,-0.1457,-0.1466,-0.1475,-0.1665,-0.1694,-0.172,0,0,0,0,0,0,-0.0827,-0.0841,-0.0843,-0.0865,-0.088,-0.0897,-0.0927,-0.0923,-0.0976,-0.0995,-0.1042,-0.1063,-0.1205,-0.1221,-0.1158,-0.1465,-0.1361,-0.1374,-0.1499,-0.1527,-0.1549,-0.1507,-0.1195,0,0,0,0,0,-0.0832,-0.0855,-0.0861,-0.088,-0.0892,-0.0904,-0.0918,-0.0934,-0.097,-0.0993,-0.1063,-0.115,-0.1256,-0.1331,-0.1403,-0.1548,-0.146,-0.168,-0.1703,-0.1722,-0.1699,-0.1658,-0.1673,-0.1509,-0.1509,-0.1509,0,0,-0.083,-0.0851,-0.0857,-0.0885,-0.0905,-0.0925,-0.0917,-0.095,-0.1,-0.1008,-0.1127,-0.1211,-0.1296,-0.1476,-0.1548,-0.1519,-0.1732,-0.1734,-0.1751,-0.1715,-0.1668,-0.1683,-0.1697,-0.1515,-0.1514,-0.1513,0,0,-0.0852,-0.087,-0.0898,-0.0918,-0.0952,-0.0958,-0.0961,-0.1005,-0.1069,-0.1187,-0.1218,-0.1357,-0.1535,-0.1629,-0.1701,-0.1871,-0.1825,-0.1955,-0.2082,-0.2046,-0.2057,-0.2067,-0.2,-0.2002,-0.2002,-0.2003,-0.2003,0,-0.0854,-0.0889,-0.0908,-0.0945,-0.0968,-0.0966,-0.0997,-0.1055,-0.1129,-0.1227,-0.1261,-0.1548,-0.1613,-0.182,-0.1912,-0.1931,-0.1877,-0.1984,-0.2072,-0.2079,-0.2084,-0.2014,-0.2012,-0.2014,-0.2012,-0.2011,-0.201,0,-0.0889,-0.0926,-0.0949,-0.0991,-0.1018,-0.1048,-0.1106,-0.1186,-0.1285,-0.1385,-0.1634,-0.1745,-0.1921,-0.2018,-0.2037,-0.2179,-0.2116,-0.2076,-0.1996,-0.2113,-0.2032,-0.2027,-0.203,-0.2026,-0.2022,-0.202,0,0,-0.0854,-0.0953,-0.0959,-0.0991,-0.105,-0.1063,-0.1184,-0.1308,-0.1445,-0.1616,-0.1806,-0.2053,-0.2147,-0.2221,-0.2294,-0.2309,-0.233,-0.2243,-0.2236,-0.2163,-0.2231,-0.2107,-0.2087,-0.2314,-0.2314,-0.2314,-0.2165,0,-0.0872,-0.0949,-0.1,-0.1051,-0.1082,-0.1153,-0.1254,-0.1384,-0.1597,-0.1786,-0.1966,-0.2168,-0.2218,-0.2349,-0.238,-0.2312,-0.2323,-0.2371,-0.2137,-0.2129,-0.1993,-0.208,-0.2314,-0.216,-0.2159,-0.2158,-0.2157,0,-0.0879,-0.0932,-0.1003,-0.11,-0.1122,-0.1165,-0.1368,-0.1475,-0.1748,-0.1965,-0.2225,-0.2321,-0.243,-0.2426,-0.2391,-0.2424,-0.2349,-0.2288,-0.228,-0.2072,-0.1994,-0.2012,-0.2145,-0.2146,-0.2147,-0.2148,-0.2149,0,-0.0828,-0.0926,-0.0984,-0.1012,-0.1121,-0.1206,-0.1281,-0.1552,-0.1702,-0.2065,-0.2212,-0.2409,-0.2444,-0.2415,-0.231,-0.2354,-0.2177,-0.2207,-0.2028,-0.2017,-0.2075,-0.2065,-0.215,-0.215,-0.215,-0.2151,-0.2151,0,-0.0814,-0.0851,-0.0971,-0.0995,-0.1063,-0.1182,-0.1346,-0.1551,-0.1831,-0.1927,-0.2265,-0.2313,-0.2428,-0.2342,-0.2291,-0.211,-0.2153,-0.2032,-0.1973,-0.2172,-0.2176,-0.2071,-0.2063,-0.2145,-0.2146,-0.2147,-0.2148,0,-0.0733,-0.0822,-0.0874,-0.1004,-0.1038,-0.1094,-0.1279,-0.141,-0.1738,-0.1859,-0.193,-0.2183,-0.2103,-0.216,-0.2052,-0.2021,-0.1899,-0.182,-0.1994,-0.1947,-0.1781,-0.1787,-0.1651,-0.1645,-0.164,-0.1636,-0.1633,0,-0.0704,-0.0725,-0.0829,-0.0853,-0.0912,-0.1008,-0.1049,-0.1348,-0.1444,-0.1665,-0.1622,-0.1709,-0.1802,-0.1649,-0.1708,-0.168,-0.1671,-0.1637,-0.1785,-0.1776,-0.1732,-0.1745,-0.1757,-0.1626,-0.1624,-0.1623,-0.1622,0,-0.0624,-0.0667,-0.0705,-0.0754,-0.0792,-0.0816,-0.0883,-0.0952,-0.116,-0.1354,-0.1394,-0.1482,-0.1408,-0.1486,-0.1506,-0.1452,-0.1698,-0.1589,-0.1602,-0.1741,-0.1744,-0.1708,-0.1725,-0.1606,-0.1608,-0.161,-0.161,0,-0.0551,-0.055,-0.0616,-0.0656,-0.0674,-0.0675,-0.0729,-0.0761,-0.0889,-0.1116,-0.0995,-0.1165,-0.125,-0.1342,-0.1268,-0.1325,-0.1366,-0.14,-0.1424,-0.1443,-0.146,-0.1439,-0.1142,0,0,0,0,0,-0.0479,-0.0496,-0.052,-0.0579,-0.0589,-0.0615,-0.0619,-0.0671,-0.0737,-0.0732,-0.0945,-0.0887,-0.1016,-0.1095,-0.1126,-0.1158,-0.1344,-0.1186,-0.1388,-0.1515,-0.1534,-0.1583,0,0,0,0,0,0,-0.0433,-0.046,-0.05,-0.0515,-0.0538,-0.0539,-0.0553,-0.0593,-0.0623,-0.0709,-0.0794,-0.0855,-0.0991,-0.1013,-0.1125,-0.1139,-0.1257,-0.1261,-0.126,-0.1504,-0.1522,-0.1537,-0.1594,0,0,0,0,0]},{"header":{"parameterUnit":"m.s-1","parameterCategory":2,"la1":30.2991,"la2":30.254,"lo1":-89.0895,"lo2":-89.0444,"dy":0.0017,"dx":0.0017,"nx":28,"ny":28,"refTime":"2023-03-30T21:00:00:Z","depth":"4","parameterNumber":3,"parameterNumberName":"V-component_of_CURRENTS"},"data":[0,0,0,0,0,0,0,0,0,0,0,0,0,0,0,0,0,0,0,0,0,0,0,0,0,0,0,0,0,0,0,0,0,0,0,0,0,0,0,0,0,0,0,0,0,0,0,0,0,0,0,0,0,0,0,0,0,0,0.0101,0.0101,0,0.0136,0.0137,0.0137,0.0176,0.0177,0.0178,0.0178,0.0181,0.018,0.018,0,0,0,0,0,0,0,0,0,0,0,0,0,0.0069,0.0069,0.0101,0.0101,0.0102,0.0136,0.0137,0.0137,0.0176,0.0177,0.0178,0.0178,0.0181,0.0181,0.018,0,0,0,0,0,0,0,0,0,0,0,0,0,0.009,0.0069,0.01,0.0126,0.0129,0.0136,0.0137,0.0137,0.0176,0.0177,0.0178,0.0179,0.0181,0.0181,0.018,0.0155,0,0,0.0177,0.0177,0,0,0,0,0,0,0,0,0.0089,0.0091,0.0122,0.0124,0.0127,0.0154,0.0127,0.0142,0.0176,0.0157,0.0178,0.0179,0.0169,0.0169,0.0173,0.0155,0.0155,0.0177,0.0177,0.0176,0.0176,0,0,0,0,0,0,0,0.0088,0.009,0.0114,0.0122,0.0126,0.0137,0.0141,0.013,0.0155,0.0159,0.0162,0.0167,0.017,0.0173,0.0173,0.0155,0.0177,0.0177,0.0176,0.0176,0.0145,0.0145,0,0,0,0,0,0,0.0084,0.0089,0.0113,0.0115,0.0112,0.0137,0.0141,0.0143,0.0156,0.016,0.0166,0.0169,0.0174,0.0174,0.0173,0.0224,0.0176,0.0176,0.0175,0.0145,0.0145,0.0145,0,0,0,0,0,0,0.0083,0.0086,0.0111,0.0104,0.0108,0.0136,0.0139,0.0144,0.0149,0.0163,0.0166,0.0167,0.0175,0.0174,0.0158,0.0222,0.0175,0.0175,0.0146,0.0145,0.0145,0.0275,0,0,0,0,0,0,0.0082,0.0085,0.0087,0.0103,0.0108,0.0112,0.0138,0.0144,0.0151,0.0155,0.0164,0.0165,0.0176,0.016,0.0158,0.022,0.0174,0.0146,0.0145,0.0145,0.0271,0.0279,0.0286,0,0,0,0,0,0.0081,0.008,0.0086,0.009,0.0109,0.0112,0.0115,0.0138,0.015,0.0147,0.0151,0.0165,0.0155,0.0158,0.0156,0.022,0.0146,0.0146,0.0145,0.0268,0.0277,0.0286,0,0,0,0,0,0,0.0064,0.0084,0.0092,0.0096,0.0102,0.0119,0.0125,0.0132,0.0133,0.0138,0.0149,0.015,0.0153,0.0145,0.0148,0.02,0.0157,0.0156,0.0252,0.026,0.0268,0.0279,0.0173,0,0,0,0,0,0.006,0.0067,0.008,0.0082,0.0087,0.0102,0.0107,0.0117,0.0122,0.0125,0.0134,0.014,0.0146,0.017,0.0149,0.0182,0.0181,0.0218,0.0225,0.0232,0.0234,0.0308,0.0325,0.0142,0.0142,0.0142,0,0,0.0047,0.0066,0.0065,0.0079,0.0089,0.0065,0.0107,0.0111,0.0087,0.0121,0.0103,0.0141,0.0143,0.0179,0.0185,0.0193,0.0273,0.0231,0.0239,0.0236,0.031,0.0329,0.0345,0.0142,0.0142,0.0142,0,0,0.0022,0.0047,0.0038,0.0037,0.005,0.005,0.0047,0.0063,0.0073,0.007,0.0091,0.017,0.0159,0.0218,0.0236,0.0261,0.028,0.0261,0.0358,0.0432,0.0449,0.0464,0.046,0.0474,0.0306,0.0306,0.0307,0,0.0013,-0.0004,0.0033,0.0016,-0.0001,0.0034,-0.0007,0.0001,0.0009,0.0022,0.0065,0.0166,0.0183,0.0276,0.0313,0.0288,0.0305,0.0341,0.0449,0.0464,0.0478,0.047,0.0484,0.0313,0.0312,0.0311,0.0311,0,-0.003,-0.005,-0.0054,-0.0074,-0.0089,-0.0108,-0.0107,-0.0105,-0.0068,-0.0034,0.0068,0.0178,0.0268,0.0308,0.0331,0.046,0.0426,0.0427,0.0446,0.0506,0.0491,0.0503,0.0321,0.0319,0.0317,0.0316,0,0,-0.003,-0.0077,-0.008,-0.012,-0.014,-0.016,-0.0197,-0.0202,-0.0203,-0.0071,0.0005,0.0149,0.0303,0.0334,0.0446,0.0562,0.0686,0.057,0.0571,0.0596,0.0811,0.0656,0.0654,0.0737,0.074,0.0743,0.0753,0,-0.0075,-0.0143,-0.0156,-0.0245,-0.0288,-0.0287,-0.0338,-0.0332,-0.0267,-0.0184,0.0042,0.0155,0.0284,0.0417,0.056,0.0626,0.0729,0.0679,0.0719,0.0718,0.0603,0.0667,0.0754,0.0762,0.0765,0.0767,0.0769,0,-0.011,-0.0156,-0.0252,-0.0347,-0.0366,-0.042,-0.0457,-0.0487,-0.038,-0.0278,-0.0035,0.0119,0.0371,0.0473,0.0709,0.0681,0.0759,0.0826,0.0828,0.0648,0.0588,0.069,0.0791,0.0789,0.0787,0.0786,0.0785,0,-0.0133,-0.0223,-0.0307,-0.0337,-0.0437,-0.0481,-0.0529,-0.0509,-0.0522,-0.0284,-0.0191,0.0118,0.0291,0.0494,0.0643,0.0708,0.0819,0.0906,0.0834,0.082,0.0902,0.0886,0.1052,0.1052,0.1052,0.1052,0.1052,0,-0.0175,-0.024,-0.0325,-0.0375,-0.0482,-0.053,-0.0598,-0.0571,-0.0512,-0.0481,-0.0195,-0.0058,0.0311,0.0422,0.0599,0.0706,0.0781,0.0847,0.0832,0.0945,0.0934,0.0909,0.0892,0.1052,0.1052,0.1052,0.1052,0,-0.0192,-0.0247,-0.0348,-0.046,-0.0499,-0.0571,-0.0674,-0.0697,-0.0626,-0.0548,-0.0451,-0.0204,-0.0014,0.0209,0.0461,0.0586,0.0724,0.072,0.073,0.0713,0.0706,0.0696,0.0744,0.074,0.0735,0.0732,0.0729,0,-0.0211,-0.0264,-0.0394,-0.0459,-0.0515,-0.0618,-0.0687,-0.0705,-0.0699,-0.0645,-0.058,-0.0424,-0.0225,-0.0014,0.023,0.0485,0.053,0.0586,0.0794,0.0704,0.0685,0.0681,0.0676,0.0722,0.0721,0.072,0.0719,0,-0.0248,-0.0286,-0.0365,-0.0493,-0.058,-0.0681,-0.0759,-0.0776,-0.0776,-0.0729,-0.064,-0.0477,-0.0329,-0.0051,0.0061,0.0271,0.0576,0.0547,0.0563,0.0759,0.0678,0.0662,0.0662,0.0704,0.0706,0.0708,0.0709,0,-0.0255,-0.031,-0.0407,-0.0529,-0.0633,-0.0717,-0.0762,-0.0777,-0.0804,-0.073,-0.0731,-0.0535,-0.0411,-0.0178,-0.0061,0.0101,0.0254,0.0392,0.042,0.0438,0.0355,0.0207,0.0082,0,0,0,0,0,-0.0254,-0.0328,-0.0442,-0.0576,-0.0676,-0.0743,-0.0802,-0.0824,-0.0828,-0.0764,-0.0752,-0.0602,-0.0374,-0.0274,-0.0121,-0.0092,0.027,0.0092,0.0442,0.0624,0.064,0.0583,0,0,0,0,0,0,-0.0263,-0.035,-0.0438,-0.0593,-0.0684,-0.0791,-0.0828,-0.083,-0.0784,-0.0758,-0.063,-0.0571,-0.0343,-0.0467,-0.0123,-0.008,0.0165,0.0197,0.02,0.0614,0.0629,0.0643,0.059,0,0,0,0,0]}]]